Wind_Speed
26 25 25 25 25 23 21 18 15 13 11 11 11 11 11 11 12 12 12 12 11 9 8 7 6 5 4 4 4 5 5 6 7 8 9 9 9 9 10 10 11 12 13 14 14 13 13 12 12 12 13 14 16 18 18 18 17 16 16 17 17 17 18 18 19 20 21 21 21
25 24 23 23 23 21 19 16 14 12 11 11 12 12 12 12 12 13 13 13 12 10 9 8 7 6 5 5 5 5 5 6 7 8 9 9 9 9 10 11 11 12 13 13 13 13 13 13 13 14 15 17 19 20 20 20 19 19 19 19 19 19 20 20 21 21 21 20 19
24 23 22 22 21 19 17 15 13 12 12 12 12 12 12 12 14 14 14 14 13 12 11 9 8 7 6 6 5 5 5 6 7 8 9 10 10 11 11 11 11 12 13 14 15 15 15 15 15 16 17 19 20 20 20 21 21 21 21 21 21 21 21 21 22 22 21 21 20
24 24 23 21 20 18 16 14 13 12 12 13 13 13 13 13 14 15 15 15 13 12 10 9 8 8 8 8 8 8 9 9 8 8 9 10 11 11 12 13 13 14 15 17 18 18 18 17 17 18 19 20 21 21 21 22 22 22 22 23 23 23 23 23 23 23 22 22 22
26 25 23 21 19 17 15 13 12 12 13 13 14 14 14 14 15 15 15 14 12 10 9 8 7 8 10 11 12 13 14 14 14 13 12 12 12 12 13 14 16 18 19 21 21 21 20 19 20 20 21 22 22 22 23 23 23 23 24 24 24 23 23 23 23 23 23 24 24
26 24 22 20 17 15 14 12 12 12 13 13 14 14 15 15 15 15 14 13 12 10 9 8 7 8 10 12 13 15 16 17 17 17 16 14 14 14 16 18 20 21 23 23 22 22 22 21 21 21 22 22 22 22 23 23 24 24 24 24 24 24 24 24 24 24 24 24 25
24 21 19 17 15 13 12 12 12 12 13 13 13 14 15 15 16 15 15 14 13 12 12 12 13 14 15 16 17 17 18 18 18 18 17 16 16 18 19 21 22 22 22 22 22 22 22 21 21 20 20 21 21 21 22 22 23 23 24 24 24 24 24 24 25 25 25 25 25
21 19 17 15 14 13 13 13 13 13 12 12 12 13 13 14 14 14 14 13 13 13 14 15 16 18 18 19 18 18 18 18 17 17 18 19 20 20 21 21 21 21 21 21 20 20 19 19 19 18 19 19 19 20 21 21 21 22 23 23 24 24 24 24 24 24 24 25 25
20 18 17 16 15 15 14 14 13 13 12 10 10 10 10 11 11 11 11 11 12 13 14 15 16 17 18 18 18 18 18 18 18 18 19 20 19 19 19 20 20 19 19 18 17 17 17 17 17 18 18 18 19 19 20 20 20 21 22 22 23 23 23 23 23 23 24 24 25
20 19 17 16 16 15 15 14 13 12 10 8 8 8 8 8 9 9 10 12 13 14 15 16 16 17 17 17 17 17 17 17 17 17 17 17 17 18 18 18 17 17 17 16 16 16 16 17 17 18 18 19 19 19 20 20 20 21 21 22 22 23 23 23 23 23 23 23 24
19 18 17 15 14 14 13 12 11 10 9 8 7 7 8 10 11 12 13 14 15 16 16 16 16 16 16 17 17 17 17 17 16 16 16 16 16 16 16 16 16 16 16 16 16 16 17 17 18 19 19 20 20 20 21 21 21 22 23 23 24 24 24 24 23 23 23 23 23
17 15 14 13 12 11 11 10 10 9 9 9 9 10 11 12 13 14 15 15 16 16 16 15 15 15 16 16 16 16 16 16 16 16 15 15 15 15 15 15 15 16 16 16 17 18 18 19 20 20 21 21 22 22 22 22 23 24 24 25 25 25 25 25 25 24 23 23 23
14 13 12 11 11 10 9 9 9 10 10 11 11 11 12 13 13 14 14 14 15 15 15 15 14 14 14 14 14 14 14 14 14 14 14 14 15 15 15 16 16 17 17 18 18 19 20 20 21 21 22 22 22 22 21 21 21 21 22 23 24 24 24 25 24 24 23 23 23
12 11 11 10 10 10 10 10 11 11 12 12 12 12 12 12 13 13 13 13 13 13 13 13 13 13 12 12 12 12 12 12 13 13 14 14 15 15 16 16 16 16 16 17 17 17 18 18 19 20 20 20 20 19 18 17 17 17 17 18 19 20 21 21 22 22 22 22 23
11 11 11 11 11 11 12 12 13 13 13 13 13 13 13 13 13 13 13 12 12 12 11 11 11 10 10 10 10 10 11 11 12 12 12 13 13 13 12 12 12 13 13 13 14 14 15 15 16 16 17 17 17 16 15 15 15 15 15 16 16 17 17 17 18 18 19 20 21
12 12 12 12 13 13 13 13 13 13 13 13 13 13 14 14 13 13 12 12 11 10 10 10 9 9 9 9 9 9 9 9 9 9 9 9 9 9 9 9 9 10 10 11 11 12 12 13 14 14 15 15 15 15 15 15 15 15 15 14 15 15 15 15 15 15 15 16 17
14 14 13 13 13 12 12 12 12 12 12 12 12 13 13 13 13 12 11 10 10 9 8 8 8 8 8 8 7 7 7 6 6 6 6 7 7 8 8 8 9 9 10 10 11 11 12 12 13 13 14 14 14 15 15 15 15 15 15 14 14 15 15 15 14 14 14 15 16
14 14 13 12 12 11 11 11 12 12 12 12 12 12 12 12 12 11 10 9 8 8 8 8 8 7 6 5 5 5 5 5 6 6 6 6 7 8 8 8 9 9 10 10 11 12 12 13 13 14 14 14 15 15 15 15 15 15 15 15 15 15 15 15 15 15 15 15 16
14 13 12 11 11 11 11 12 12 12 13 13 12 12 12 11 10 9 8 7 7 7 7 7 6 5 4 4 4 4 5 5 6 6 6 6 7 8 8 9 9 10 10 11 12 12 13 14 15 15 15 15 16 16 16 16 16 16 16 16 16 16 16 16 16 16 15 16 16
13 12 12 11 11 11 12 12 13 13 13 13 12 12 11 10 9 8 6 6 6 5 4 3 3 3 4 4 4 5 5 5 6 6 7 7 7 8 9 9 10 10 11 11 12 13 14 15 16 16 16 16 16 16 16 16 16 16 16 16 17 17 17 17 17 17 16 16 16
12 12 11 11 11 11 12 13 13 13 13 13 12 11 10 9 7 6 5 5 4 3 2 2 3 4 5 5 5 6 6 6 6 7 7 7 7 8 8 9 9 10 11 12 13 14 15 15 16 16 16 15 15 15 15 15 15 15 15 16 17 17 17 17 17 16 16 15 15
12 12 11 11 12 12 13 13 13 13 13 13 12 10 9 7 6 6 5 5 4 3 2 2 3 4 5 6 6 6 7 7 7 7 7 7 7 7 8 8 9 10 11 12 13 14 15 15 15 14 14 13 13 13 13 13 13 14 14 15 15 16 16 16 16 15 15 14 15
12 12 12 12 12 13 13 14 14 13 13 12 10 9 8 7 6 6 6 6 5 4 4 4 4 5 6 6 7 7 7 7 8 8 7 7 6 7 8 9 10 10 11 12 12 14 15 15 14 13 12 11 11 12 12 12 12 13 13 14 14 14 14 14 14 14 14 14 14
13 13 13 13 13 14 14 14 13 12 11 10 9 8 7 7 7 7 7 7 6 6 5 5 5 6 6 6 7 7 7 7 7 7 7 6 6 7 9 10 10 11 11 11 12 13 14 15 14 12 10 10 10 11 11 11 12 12 13 13 13 14 14 14 14 14 14 14 14
13 13 13 14 14 13 13 13 12 11 10 9 8 7 7 7 7 7 7 7 7 7 6 6 6 6 6 6 6 7 6 6 6 6 6 6 7 8 9 9 10 10 10 10 11 11 12 13 12 11 9 9 9 10 10 11 11 12 12 13 13 14 14 14 14 13 13 13 13
12 12 13 13 13 13 12 12 11 10 9 8 8 7 7 7 8 8 8 8 7 7 6 6 6 6 6 6 6 6 6 5 5 5 6 7 8 8 9 9 9 10 10 10 11 11 11 10 10 10 9 9 9 10 11 11 11 12 12 13 13 14 14 14 14 13 13 13 13
12 12 12 12 12 12 11 11 10 9 9 8 8 8 8 8 9 8 8 8 7 6 5 6 6 6 5 6 6 6 6 6 6 7 8 8 9 9 10 10 10 11 11 11 11 10 9 9 9 10 10 10 10 10 11 11 11 12 12 13 13 14 14 14 14 14 13 13 12
11 11 11 11 11 10 10 9 9 8 8 9 9 9 9 9 8 8 8 7 6 5 4 4 5 5 5 6 6 7 7 7 8 8 9 9 10 10 10 10 10 11 11 11 10 9 8 7 8 10 11 12 11 11 11 11 11 12 12 13 14 14 14 14 14 13 13 13 12
11 11 11 11 10 9 8 8 8 8 9 9 9 9 7 6 6 7 7 6 5 4 4 4 4 5 5 6 7 7 7 8 8 9 10 10 10 10 10 9 10 10 10 10 9 8 7 7 8 10 11 12 12 12 11 11 11 12 12 13 13 14 14 14 13 13 13 13 12
12 11 11 10 9 9 8 9 9 10 10 10 9 8 7 6 6 6 6 6 6 6 4 4 4 5 6 6 7 7 8 8 9 10 10 10 10 9 9 9 9 10 9 9 8 7 8 8 9 10 11 12 13 13 13 12 12 12 13 13 13 13 13 13 13 13 13 12 12
12 12 11 10 9 9 9 10 11 11 10 10 9 8 7 6 6 6 6 7 7 6 4 4 5 5 6 6 7 8 9 9 9 10 10 10 10 9 9 8 9 9 8 7 7 8 9 9 9 10 11 12 13 14 13 13 13 13 13 13 13 13 13 13 13 12 12 12 12
12 12 11 10 10 10 10 11 11 11 10 9 9 8 7 6 6 6 6 7 6 6 5 5 6 7 7 7 8 9 9 9 9 9 9 9 9 9 9 8 8 8 7 7 7 8 9 10 11 11 12 12 13 14 14 13 13 13 13 13 12 12 12 11 11 11 11 11 11
13 13 12 11 11 11 11 11 11 11 11 10 9 8 7 7 7 7 7 7 6 7 7 8 8 8 9 9 9 9 9 9 9 9 9 9 9 9 9 8 7 7 7 7 7 9 10 10 11 11 12 12 13 13 13 14 13 13 13 13 12 11 10 10 9 9 10 10 10
14 13 13 12 11 11 11 11 11 11 11 10 10 9 8 8 8 8 8 7 7 7 8 9 9 9 9 9 9 9 9 9 9 9 9 9 9 9 8 8 7 7 7 7 8 9 9 10 10 11 11 12 12 13 13 13 13 13 13 13 12 11 9 8 8 8 8 9 9
14 14 13 12 11 11 11 11 12 12 12 11 10 10 10 9 9 9 9 8 7 8 8 9 10 9 9 9 9 9 9 10 10 10 9 9 9 8 8 8 8 7 7 7 8 9 9 10 10 11 12 13 13 13 13 14 14 14 13 13 11 10 8 7 7 7 7 8 8
14 14 14 13 12 11 11 12 12 13 12 12 11 11 11 11 10 10 9 9 8 9 10 10 10 9 9 8 9 9 9 10 10 10 9 9 8 8 8 8 8 8 8 8 9 9 10 10 10 11 12 13 14 14 14 14 14 14 14 13 12 10 8 7 7 7 7 7 7
15 15 14 13 12 12 12 12 13 13 13 12 12 12 12 12 12 11 10 10 10 10 11 10 10 9 9 9 9 10 10 10 10 10 10 9 8 8 8 8 9 9 9 9 9 10 10 10 11 12 13 14 14 14 13 13 13 14 14 13 12 11 9 8 8 7 7 7 7
15 15 15 14 13 13 13 13 14 14 13 13 12 12 12 12 12 12 12 11 12 12 11 10 10 9 9 9 10 10 11 11 11 10 9 9 8 8 8 9 9 10 10 9 10 10 11 11 12 13 13 13 13 12 12 12 13 13 14 14 13 12 11 10 9 9 8 7 7
15 15 15 15 14 14 13 14 14 14 13 13 12 12 13 13 13 13 12 12 12 12 11 10 10 9 9 10 10 11 12 12 11 11 10 9 9 9 9 9 10 10 9 9 10 10 11 12 12 12 12 12 11 10 10 11 12 13 13 13 13 13 12 11 10 10 9 8 8
15 15 15 15 15 15 14 14 14 13 13 12 12 13 13 13 13 13 13 13 12 12 11 10 10 10 10 10 11 12 12 12 12 11 10 10 10 10 10 9 9 9 9 9 10 11 11 12 11 10 10 10 9 9 9 10 10 11 12 12 13 12 12 11 11 10 10 9 9
15 15 16 16 16 16 15 14 14 13 12 12 12 12 13 13 13 13 13 13 12 11 11 10 10 10 11 11 12 12 12 12 12 11 11 11 11 10 10 9 8 8 8 9 10 10 11 11 10 10 10 10 9 9 9 9 10 11 11 11 12 11 11 11 11 10 10 10 10
Wind_Direction
190 191 192 191 189 187 185 184 185 189 197 205 210 214 217 218 218 220 223 226 224 221 217 213 211 214 221 229 231 228 224 223 224 226 229 232 238 243 248 252 257 261 263 261 258 257 257 257 256 257 258 259 259 258 258 257 255 253 252 253 254 255 256 256 255 255 256 257 260
191 193 195 193 190 188 186 186 190 197 206 213 215 217 218 219 218 218 218 216 212 206 199 195 197 202 208 216 224 233 243 252 254 253 253 254 258 264 269 273 278 283 286 284 279 273 267 262 257 254 253 253 254 256 257 258 259 259 260 260 261 262 263 263 263 263 262 263 264
194 200 201 195 192 190 191 195 201 207 211 214 218 220 220 218 216 213 211 209 207 202 198 196 200 207 216 222 225 233 248 265 274 273 268 265 266 269 274 279 282 283 282 280 274 267 260 253 250 248 248 252 256 259 262 264 264 265 265 265 265 265 265 265 265 266 266 266 266
196 202 202 198 197 198 202 208 211 213 212 213 217 218 217 215 212 209 207 206 205 204 205 209 220 237 251 257 258 258 260 265 271 274 272 270 268 268 271 274 274 272 269 266 264 261 257 254 253 254 256 259 262 265 266 268 268 268 268 267 267 266 266 265 264 264 264 263 263
197 200 201 203 205 208 211 214 215 213 212 213 214 214 214 213 211 209 208 208 206 207 211 220 239 261 272 273 272 271 270 268 268 267 267 267 266 266 266 265 265 263 261 259 260 260 260 261 261 262 263 265 266 267 268 268 269 269 268 268 267 267 267 266 266 265 265 264 263
198 200 203 207 210 211 212 211 211 210 210 212 213 213 214 214 213 212 211 211 210 210 211 216 231 247 257 262 264 265 267 269 270 269 267 265 265 264 262 260 259 258 257 258 261 263 265 265 266 266 266 267 267 267 267 267 267 267 267 267 267 268 268 269 268 268 268 267 266
198 200 204 206 206 203 200 199 202 205 208 212 214 216 218 219 218 217 217 218 217 217 218 220 226 233 239 244 249 254 259 264 267 267 265 263 261 260 258 257 256 256 258 261 264 266 266 267 267 267 267 266 265 265 264 264 264 265 265 266 266 267 268 268 269 269 269 269 268
196 197 196 194 190 187 185 187 191 196 202 208 213 218 222 224 224 224 223 224 224 224 225 227 230 233 236 239 243 247 252 257 259 258 257 256 255 254 254 255 257 259 261 262 262 263 264 265 266 265 265 265 264 263 262 262 263 263 264 265 265 266 266 266 266 267 267 267 267
185 186 185 181 179 178 180 183 187 192 197 204 212 219 224 227 228 226 223 220 220 222 223 224 227 229 230 232 235 239 244 247 249 249 249 250 251 252 254 256 257 257 258 258 259 260 261 263 263 263 263 263 263 262 262 262 263 264 265 265 266 266 266 265 265 265 265 264 264
175 176 177 177 177 179 182 186 190 193 196 201 209 216 219 218 216 212 209 208 210 212 213 216 219 222 224 227 230 236 241 242 243 246 249 252 254 255 256 256 255 255 256 258 260 261 262 262 263 263 263 262 263 264 264 264 265 265 266 266 267 268 267 267 265 264 264 263 262
172 174 176 178 181 185 190 192 195 194 191 189 194 198 200 199 198 199 201 204 206 209 212 216 220 223 227 232 236 241 245 248 249 252 256 258 258 258 258 258 259 260 262 264 265 265 265 266 267 267 267 266 267 267 268 268 268 268 268 268 268 268 268 267 266 265 264 263 263
172 173 176 180 185 191 195 198 199 195 189 185 187 192 196 198 199 201 204 207 210 214 218 224 228 232 237 241 246 250 253 256 258 260 261 261 262 263 264 267 269 271 272 272 272 271 271 272 273 273 273 273 272 272 273 272 272 271 270 269 269 268 267 267 267 267 266 265 265
172 174 178 182 187 191 195 198 200 199 197 195 197 201 205 206 208 209 212 214 217 221 225 230 235 239 243 247 251 254 257 259 262 263 265 266 268 271 273 275 277 277 278 278 277 277 277 277 278 279 279 278 278 278 278 276 275 273 271 270 269 268 267 267 268 269 269 268 268
175 179 183 186 189 192 195 197 199 200 201 203 205 209 213 215 217 218 219 220 222 224 227 232 236 240 243 247 252 255 259 262 265 268 270 273 275 277 279 280 281 281 282 282 283 283 283 284 284 284 285 285 286 285 285 283 281 279 277 276 275 273 272 271 272 272 272 270 269
181 184 187 189 191 194 196 197 198 199 201 202 205 210 215 218 221 223 223 223 223 224 227 230 233 237 243 248 254 260 264 269 272 275 277 279 281 283 285 287 288 289 290 292 293 294 294 294 294 294 295 296 296 295 293 292 290 288 286 285 284 283 281 280 279 278 277 276 274
183 184 186 188 191 193 195 197 198 198 199 200 203 208 213 215 217 220 221 220 220 222 225 229 235 243 250 257 263 269 274 279 282 284 285 288 291 295 299 302 304 305 305 304 305 305 303 302 301 301 302 301 300 298 297 295 293 292 292 291 291 290 289 287 286 284 284 283 281
178 180 183 186 189 191 193 195 196 198 199 199 201 204 207 209 211 212 213 215 218 224 232 241 250 256 262 268 274 280 288 294 297 299 300 304 308 312 314 315 316 315 313 308 306 304 302 300 299 300 300 299 297 295 294 292 292 291 292 292 291 290 289 287 286 284 283 283 283
174 177 181 185 188 190 192 193 195 197 198 199 200 202 204 206 208 209 213 219 229 243 255 262 265 266 269 277 286 296 304 309 309 310 312 315 317 318 318 317 316 315 313 309 305 302 299 296 294 294 293 291 289 288 287 287 287 286 286 285 284 284 284 284 283 282 281 281 281
174 178 182 185 188 190 192 193 194 196 198 200 202 204 207 209 212 216 225 239 254 266 271 271 270 273 283 295 302 307 310 312 311 310 312 315 317 317 316 313 312 310 308 306 304 301 297 293 290 288 286 284 283 281 281 280 280 279 279 279 279 279 280 282 282 282 281 280 279
177 181 184 188 190 192 193 194 195 197 199 203 206 208 211 214 220 229 244 259 270 275 275 273 280 294 306 310 308 305 304 305 306 305 304 304 307 310 311 310 309 306 302 300 298 296 293 290 288 285 284 283 282 280 279 278 278 278 279 279 280 281 281 281 281 280 279 278 278
181 185 188 190 192 193 194 195 197 199 202 205 208 210 214 219 228 239 252 260 263 262 262 279 297 304 306 304 300 296 295 297 299 297 295 294 297 302 305 305 304 302 300 298 297 295 294 292 290 288 286 284 283 282 281 281 281 281 281 281 281 281 281 280 280 280 280 281 280
183 187 189 191 193 193 194 195 198 201 203 205 208 211 216 224 233 241 246 245 240 236 244 268 287 294 294 293 290 288 288 290 291 291 289 288 291 297 301 301 302 302 302 301 300 300 299 297 294 292 289 288 287 286 285 285 285 284 283 283 282 281 281 282 283 285 287 288 286
185 187 189 191 192 193 195 196 198 200 202 204 208 213 220 229 235 238 239 236 231 232 241 256 269 276 279 280 279 279 280 282 283 283 282 283 289 295 299 301 302 301 300 299 299 300 300 299 297 294 292 292 292 292 292 291 290 289 288 287 286 285 285 286 289 291 292 292 290
185 187 189 190 192 193 195 196 198 199 201 204 210 217 226 232 236 237 236 235 236 239 246 255 262 269 273 275 275 274 273 274 275 276 277 280 287 293 296 297 297 295 293 293 294 295 296 296 295 294 294 296 297 297 296 295 293 292 291 291 290 289 288 288 290 292 292 291 291
185 187 189 190 192 194 197 198 200 201 203 209 216 224 232 236 237 236 237 240 244 248 254 262 270 276 280 281 280 277 275 274 277 281 286 289 292 295 295 296 297 298 298 297 295 293 292 292 294 297 299 300 300 298 297 296 295 294 293 292 291 291 290 289 289 289 290 289 290
186 188 191 193 196 198 200 202 204 207 211 217 225 233 238 239 238 238 240 246 252 258 266 275 281 284 284 284 282 282 284 291 297 303 307 308 308 307 307 308 310 311 311 309 306 301 297 298 301 304 305 305 303 300 298 296 295 295 294 292 291 290 290 289 289 288 288 287 287
190 192 195 199 201 203 205 209 212 216 223 231 240 247 249 247 244 243 246 252 259 268 278 286 287 285 280 276 276 281 291 302 310 314 315 315 314 312 311 311 313 315 315 315 311 307 304 304 304 304 305 305 304 303 301 298 296 294 292 291 290 289 288 288 288 287 286 284 283
195 198 201 205 206 208 211 215 220 227 238 250 259 264 264 261 256 254 255 260 265 273 283 288 285 277 271 270 274 281 291 300 306 311 312 311 310 309 308 310 312 315 316 314 311 309 307 303 297 296 298 301 303 304 302 300 297 293 291 289 288 288 287 287 286 285 282 279 277
201 204 207 208 210 214 219 226 234 244 255 264 271 274 274 271 269 268 271 275 278 278 274 272 273 275 277 280 284 289 293 298 302 305 306 305 305 305 307 309 311 313 313 311 309 309 306 299 291 290 292 297 301 303 302 299 296 292 290 288 286 286 285 285 284 281 278 274 271
207 209 209 211 216 223 232 241 247 253 259 265 269 271 269 267 270 275 280 285 286 282 270 258 265 276 284 290 292 293 293 294 297 299 300 300 300 300 301 304 305 306 305 304 306 308 305 297 290 287 288 292 296 299 300 298 294 289 286 284 284 283 283 282 280 277 273 269 265
210 211 211 214 221 231 242 248 250 252 254 256 257 259 259 259 264 269 273 276 280 277 267 257 259 266 275 284 286 287 287 288 290 291 293 294 294 294 294 295 296 295 294 295 300 303 300 294 288 284 283 285 289 294 296 294 290 285 282 280 280 281 280 279 277 273 268 262 257
212 212 214 218 226 237 245 249 249 249 248 246 247 249 252 255 257 258 259 262 266 264 258 253 254 258 265 271 275 278 279 281 282 284 285 286 287 287 287 287 287 286 285 287 294 297 294 289 284 280 278 279 283 288 291 289 285 280 277 277 277 278 278 276 273 268 261 255 248
214 214 217 224 232 240 245 247 245 243 241 240 241 244 248 250 250 248 249 251 254 254 252 251 253 257 262 267 271 273 274 274 276 277 278 278 279 279 280 281 282 282 282 286 293 294 291 285 280 276 274 275 279 285 288 286 280 275 272 272 273 273 273 271 267 260 252 244 238
215 216 219 226 233 239 242 241 239 237 235 236 239 242 244 244 243 242 244 247 248 249 249 251 254 259 263 267 270 271 271 271 271 271 271 271 272 272 273 276 279 280 281 285 291 291 287 280 275 272 271 273 279 285 288 285 277 270 266 265 266 266 264 261 255 246 238 232 228
218 219 222 228 234 237 236 234 233 232 232 234 238 240 241 241 241 241 243 246 246 246 247 248 251 254 259 262 265 266 266 266 267 267 266 266 266 267 270 274 278 279 279 281 287 286 280 274 271 270 272 276 281 286 288 284 274 266 260 258 257 255 251 245 237 229 224 220 218
222 224 226 231 236 236 233 231 230 230 232 234 237 239 240 239 240 240 241 243 245 245 245 245 246 247 250 253 256 258 259 261 262 262 262 261 262 264 269 274 279 280 278 277 280 278 274 271 272 274 278 282 285 287 286 280 270 261 254 250 247 243 238 229 222 217 214 212 212
225 227 230 234 236 236 233 230 229 230 232 234 236 238 239 239 238 238 238 240 242 243 243 243 242 242 244 247 250 253 256 258 258 257 256 258 260 265 273 280 284 284 280 275 273 271 271 273 278 283 286 288 288 286 281 273 264 255 248 243 240 236 230 223 218 215 213 212 210
226 229 231 234 235 235 232 231 231 231 233 235 237 239 240 240 238 236 237 238 240 241 242 242 240 240 241 245 248 251 253 254 254 253 254 258 264 271 280 286 289 288 283 276 271 270 273 278 286 290 292 291 287 281 273 265 256 249 243 239 237 233 229 223 220 219 218 217 215
230 232 234 235 235 233 232 232 233 234 235 237 238 239 240 240 238 237 238 240 241 242 242 241 240 239 241 244 247 248 249 251 251 253 256 262 269 277 283 287 288 287 282 275 271 271 277 284 291 293 292 288 282 274 266 259 253 247 242 238 235 233 231 226 223 222 222 222 220
234 235 237 237 235 233 231 232 234 236 238 238 239 239 240 240 239 239 241 243 244 244 243 242 240 241 242 244 246 247 248 250 253 256 261 267 274 280 283 284 284 283 278 272 269 271 279 287 293 292 287 279 272 266 261 258 255 250 244 239 237 235 234 232 227 224 223 223 221
236 237 238 237 234 231 228 230 233 235 237 238 240 241 241 241 239 239 240 243 244 244 243 241 241 242 243 245 248 250 252 254 257 261 266 271 277 280 281 281 281 278 273 267 266 270 278 288 291 289 280 270 263 259 258 259 258 255 249 243 239 237 236 235 231 226 222 221 220
Height
796 797 798 799 799 800 800 801 802 803 804 804 805 806 806 807 807 808 808 810 811 812 813 814 814 815 816 816 817 818 818 819 819 820 821 822 822 822 823 823 823 823 822 821 819 819 818 818 818 818 819 821 822 823 823 823 823 823 823 822 822 822 822 822 822 822 822 822 822
795 797 798 799 799 800 800 801 802 803 803 804 804 805 806 806 807 808 808 810 811 812 813 813 814 814 815 816 816 817 818 819 820 821 822 823 822 823 823 824 824 824 824 823 822 821 820 819 818 818 819 821 822 822 822 822 821 821 821 821 821 821 821 820 820 820 821 821 821
794 797 799 799 799 799 800 800 801 802 803 803 803 804 805 806 807 808 808 809 810 811 812 813 813 814 815 815 816 817 818 818 819 820 821 821 822 822 823 824 824 824 825 825 825 823 821 819 818 818 819 819 820 820 820 819 819 819 819 819 819 819 819 819 819 819 819 819 819
793 796 798 798 798 799 799 800 801 801 802 803 803 804 805 806 807 808 808 809 810 811 812 813 813 815 816 816 817 817 817 818 819 819 820 821 821 821 822 823 824 825 825 825 825 824 821 818 817 817 817 817 818 818 818 818 817 817 817 818 818 818 818 818 818 818 818 818 818
793 795 796 797 798 798 798 799 800 801 802 802 803 804 805 805 806 807 808 808 809 810 811 812 813 815 817 818 817 817 818 818 818 819 819 820 820 820 821 822 824 825 825 824 823 822 819 817 816 816 816 816 816 816 816 816 816 816 816 816 816 816 816 816 816 816 816 816 816
792 793 795 796 797 797 798 799 800 801 801 802 803 803 804 805 806 807 807 808 808 809 810 811 813 815 817 818 817 818 818 818 818 819 819 819 819 820 821 822 823 823 823 822 821 818 817 815 815 814 814 814 814 814 814 814 814 814 814 814 815 815 815 814 814 814 814 814 814
792 793 794 795 796 797 798 798 799 800 801 802 803 803 804 805 805 806 806 807 808 808 809 810 812 814 816 816 817 817 818 818 818 819 819 819 819 820 821 821 821 821 820 819 817 816 815 814 814 813 813 813 813 813 813 813 813 813 813 813 813 813 813 813 813 813 813 812 812
792 793 794 794 795 796 797 798 799 800 801 802 802 803 803 804 804 805 806 806 807 808 809 810 812 813 814 815 816 816 817 817 817 818 818 818 818 818 819 819 819 818 818 817 816 815 814 813 812 812 812 812 812 812 812 812 812 812 812 812 812 812 812 812 812 811 811 810 810
792 793 793 794 795 796 797 798 799 800 800 801 802 802 803 803 804 804 805 806 807 808 810 811 812 813 814 814 815 815 816 816 817 817 817 816 816 816 816 816 816 816 816 815 814 813 812 811 811 810 810 810 810 811 811 811 811 811 810 810 810 810 810 810 810 810 809 809 808
791 792 793 794 795 796 797 798 799 799 800 800 801 802 803 804 804 805 805 807 808 809 810 811 812 813 813 813 813 813 814 814 814 814 813 813 813 813 814 814 814 814 813 812 811 810 810 809 809 809 809 809 809 809 809 809 809 809 809 808 808 808 808 808 808 808 808 807 807
791 792 793 794 795 796 797 798 798 799 799 800 801 802 803 804 805 805 806 807 808 808 809 810 811 811 811 811 811 811 811 811 811 811 811 811 811 812 812 811 811 810 810 809 808 808 808 808 808 808 808 808 808 808 808 808 808 808 807 807 807 806 806 806 806 806 806 805 805
791 792 793 793 794 795 796 797 798 798 799 800 801 803 804 805 805 806 806 807 807 808 808 809 809 809 809 809 809 809 809 809 809 809 809 809 809 809 809 808 808 808 807 807 807 807 807 807 806 806 806 806 807 807 806 806 806 806 805 805 805 805 804 804 804 804 804 803 803
790 791 792 793 794 795 796 797 798 798 799 800 801 803 804 805 806 806 806 806 807 807 808 808 808 808 808 808 808 808 808 808 808 808 808 807 807 807 807 806 806 806 805 805 805 805 805 805 805 805 805 805 805 805 805 804 804 804 803 803 803 803 803 802 802 802 802 802 802
790 791 792 793 794 795 796 797 798 798 799 800 801 802 803 805 805 806 806 806 806 806 807 807 807 807 808 807 807 807 807 807 807 807 806 806 806 805 805 805 804 804 804 804 804 804 804 804 804 803 803 803 803 803 803 803 803 802 802 802 801 801 801 801 801 801 800 800 800
790 791 792 793 794 795 796 797 798 798 799 800 801 802 803 804 805 805 806 806 806 806 806 806 807 807 807 807 807 807 806 806 806 806 805 805 805 804 804 804 804 803 803 803 803 803 803 803 803 803 802 802 802 802 802 801 801 801 801 800 800 800 799 799 799 799 799 798 798
790 791 792 793 794 795 796 797 798 798 799 799 800 801 803 803 804 805 806 805 805 805 805 805 806 806 806 806 806 806 806 805 805 805 804 804 804 803 803 803 803 803 803 803 803 803 802 802 802 802 802 801 801 801 800 800 800 799 799 799 799 798 798 798 798 798 797 797 797
791 792 793 793 794 795 796 796 797 798 798 799 800 801 802 803 804 804 804 804 804 804 804 805 805 805 805 805 805 805 804 804 804 804 803 803 803 803 803 803 803 802 802 802 802 802 802 802 801 801 801 800 800 800 799 799 799 798 798 798 798 797 797 797 797 796 796 796 796
790 791 792 793 794 794 795 796 797 797 798 798 799 800 801 802 802 803 803 803 803 803 803 804 804 804 804 804 804 803 803 803 803 803 803 802 802 802 802 802 802 802 802 802 801 801 801 801 800 800 800 799 799 799 798 798 798 798 797 797 797 796 796 796 795 795 795 795 795
790 791 792 793 793 794 795 795 796 797 797 798 799 799 800 801 801 801 802 802 802 803 803 803 803 803 803 803 803 803 803 802 802 802 802 802 802 802 802 802 802 801 801 801 801 800 800 800 799 799 799 798 798 798 798 797 797 797 796 796 795 795 795 794 794 794 794 794 794
790 791 792 793 793 794 794 795 796 796 797 798 798 799 799 800 800 801 801 801 801 802 802 802 802 802 802 802 802 802 802 802 801 801 801 801 801 801 801 801 801 801 801 800 800 800 799 799 799 798 798 798 797 797 796 796 796 795 795 795 794 794 794 794 793 793 793 793 793
790 791 792 793 793 794 794 795 796 796 797 798 798 799 799 800 800 800 801 801 801 801 801 801 801 801 801 801 801 801 801 801 801 801 800 800 800 800 800 801 800 800 800 800 800 799 799 798 798 798 797 797 796 796 796 795 795 795 794 794 794 793 793 793 793 792 792 792 792
790 791 792 793 793 794 794 795 796 796 797 798 798 798 799 799 800 800 800 800 800 801 801 801 801 801 801 801 800 800 800 800 800 800 800 800 800 800 800 800 800 800 800 800 799 799 798 798 798 797 797 796 796 795 795 795 794 794 794 794 793 793 793 792 792 791 791 791 791
791 791 792 793 793 794 795 795 796 796 797 797 798 798 799 799 799 799 799 800 800 800 800 800 800 800 800 800 800 800 800 800 800 800 800 800 800 800 800 800 800 800 799 799 799 798 798 798 797 797 796 796 795 795 795 794 794 794 793 793 793 793 792 792 791 791 790 790 790
791 792 792 793 793 794 794 795 796 796 797 797 798 798 798 798 798 798 799 799 799 799 799 799 799 799 799 799 799 799 799 799 799 799 799 799 799 799 799 799 799 799 799 798 798 798 798 797 797 796 796 795 795 795 794 794 794 793 793 793 793 792 792 791 791 790 790 790 789
791 792 792 793 793 794 794 795 795 796 796 797 797 798 798 798 798 798 798 798 798 798 798 799 798 799 799 799 799 799 799 799 799 799 799 799 799 799 799 799 799 798 798 798 798 797 797 797 796 796 795 795 795 794 794 794 793 793 793 793 792 792 791 791 790 790 789 789 789
791 792 792 793 793 794 794 795 795 796 796 796 797 797 797 797 797 797 798 798 798 798 798 798 798 798 798 798 799 799 799 799 799 799 799 799 799 799 799 798 798 798 798 798 797 797 797 796 796 795 795 795 794 794 794 793 793 793 793 792 792 791 791 790 790 789 789 789 788
791 792 792 793 793 794 794 795 795 795 795 796 796 796 796 796 796 797 797 797 797 797 798 798 798 798 798 798 798 799 799 799 799 799 798 798 798 798 798 798 798 798 798 797 797 796 796 796 796 795 795 794 794 794 793 793 793 793 792 792 792 791 791 790 790 789 789 789 788
791 791 792 793 793 794 794 794 795 795 795 795 795 796 796 796 796 796 796 797 797 797 797 797 798 798 798 798 798 798 798 798 798 798 798 798 798 798 798 798 798 797 797 797 796 796 796 796 795 795 795 794 794 794 793 793 793 792 792 792 791 791 791 790 790 789 789 788 788
791 791 792 792 793 793 794 794 794 794 794 795 795 795 795 796 796 796 796 796 796 796 797 797 797 798 798 798 798 798 798 798 798 798 798 797 797 797 797 797 797 797 797 796 796 796 795 795 795 795 794 794 793 793 793 793 792 792 792 792 791 791 790 790 790 789 789 788 788
790 791 792 792 793 793 793 794 794 794 794 794 795 795 795 795 795 795 796 796 796 796 797 797 797 797 797 797 797 797 797 797 797 797 797 797 796 796 796 796 796 796 796 796 796 795 795 795 795 794 794 794 793 793 793 793 792 792 792 791 791 791 790 790 790 789 789 788 788
790 791 791 792 792 793 793 794 794 794 794 794 794 795 795 795 795 795 795 796 796 796 797 797 797 797 797 797 797 797 797 797 796 796 796 796 796 796 796 796 796 796 796 796 795 795 795 795 794 794 794 793 793 793 793 792 792 792 791 791 791 791 790 790 789 789 789 788 788
790 791 791 792 792 793 793 793 794 794 794 794 794 794 794 795 795 795 795 796 796 796 796 796 796 796 796 796 796 796 796 796 796 796 796 796 796 796 796 796 796 796 796 795 795 795 795 794 794 794 793 793 793 793 792 792 792 791 791 791 790 790 790 790 789 789 789 788 788
790 791 791 792 792 793 793 793 793 793 794 794 794 794 794 794 795 795 795 795 796 796 796 796 796 796 796 796 796 796 795 795 795 795 795 795 795 795 795 795 795 795 795 795 795 795 794 794 793 793 793 793 793 792 792 792 791 791 791 790 790 790 790 789 789 789 789 788 788
790 791 791 791 792 792 793 793 793 793 793 793 794 794 794 794 794 795 795 795 795 795 795 795 795 795 795 795 795 795 795 795 795 795 795 795 795 795 795 795 795 795 795 795 795 794 794 793 793 793 793 792 792 792 792 791 791 791 790 790 790 790 789 789 789 789 788 788 788
790 790 791 791 791 792 792 793 793 793 793 793 793 794 794 794 794 794 795 795 795 795 795 795 795 795 795 795 795 795 795 795 795 795 795 795 795 795 795 795 795 795 795 795 794 794 794 793 793 793 792 792 792 792 791 791 791 790 790 790 789 789 789 789 789 789 788 788 788
790 790 790 791 791 792 792 792 793 793 793 793 793 793 793 793 794 794 794 794 794 794 794 795 795 795 795 795 795 795 795 795 794 794 794 794 794 794 794 794 794 794 794 794 794 794 793 793 793 792 792 792 792 791 791 791 790 790 790 789 789 789 789 789 789 788 788 788 788
789 790 790 790 791 791 792 792 792 792 793 793 793 793 793 793 793 794 794 794 794 794 794 794 794 794 794 794 794 794 794 794 794 794 794 794 794 794 794 794 794 794 794 794 794 793 793 793 793 792 792 791 791 791 790 790 790 789 789 789 789 789 789 788 788 788 788 788 788
789 789 789 790 790 791 791 791 792 792 792 792 792 793 793 793 793 793 793 793 794 794 794 794 794 794 794 794 794 794 794 794 793 793 793 793 793 794 793 793 793 793 793 793 793 793 793 793 792 792 792 791 791 790 790 790 789 789 789 788 788 788 788 788 788 788 788 788 788
788 788 789 789 790 790 791 791 791 791 791 792 792 792 792 793 793 793 793 793 793 793 793 793 793 793 793 793 793 793 793 793 793 793 793 793 793 793 793 793 793 793 793 793 793 793 793 792 792 792 791 791 790 790 790 789 789 789 788 788 788 788 788 788 788 788 788 788 788
788 788 788 788 789 789 790 790 790 791 791 791 792 792 792 792 792 793 793 793 793 793 793 793 793 793 793 793 793 793 793 793 793 793 793 793 793 793 793 793 793 793 793 793 793 792 792 792 792 792 791 790 790 790 789 789 789 788 788 788 788 788 788 788 788 788 788 788 788
787 788 788 788 788 788 789 789 790 790 790 791 791 791 791 792 792 792 792 792 792 792 792 793 793 793 793 793 793 792 792 792 792 792 792 792 792 792 792 792 792 792 792 792 792 792 792 791 791 791 791 790 790 789 789 789 789 788 788 788 788 788 788 788 788 788 788 788 788